Regional Weather Roundup
Issued by NWS

Home | Current Version | Previous Version | Graphics & Text | Print | Product List | Glossary On
Versions: 1 2 3 4 5 6 7 8 9 10 11 12 13 14 15 16 17 18 19 20 21 22 23 24 25 26 27 28 29 30 31 32 33 34 35 36 37 38 39 40 41 42 43 44 45 46 47 48 49 50
000
ASUS45 KTFX 091210
RWRMT
MONTANA REGIONAL WEATHER ROUNDUP
NATIONAL WEATHER SERVICE GREAT FALLS MT
500 AM MST TUE FEB 09 2016

NOTE: "FAIR" INDICATES FEW OR NO CLOUDS BELOW 12000 FEET WITH NO
SIGNIFICANT WEATHER AND/OR OBSTRUCTIONS TO VISIBILITY.

MTZ001>007-043-091300-
WEST OF THE DIVIDE

CITY           SKY/WX    TMP DP  RH WIND       PRES   REMARKS
KALISPELL      CLEAR     19  17  92 CALM      30.52S
MISSOULA       CLEAR     23  21  92 CALM      30.54F FOG
BUTTE          FOG       11  10  96 SE5       30.48F VSB 1/4
MULLAN PASS    CLEAR     39  30  70 S6        30.46F
ANACONDA         N/A     28  27  93 CALM      30.48F
DEER LODGE       N/A     25  25 100 CALM      30.50S
HAMILTON         N/A     27  25  93 SE3       30.51F
LIBBY            N/A     19  18  93 CALM      30.54F
PLAINS           N/A     25  21  84 CALM      30.50F
$$

MTZ008-052>055-091300-
SOUTHWEST MONTANA

CITY           SKY/WX    TMP DP  RH WIND       PRES   REMARKS
BOZEMAN        CLOUDY    17  15  92 S5        30.46S
DILLON         CLOUDY    31  24  75 SW13      30.47F WCI  21
ENNIS          CLEAR     28  25  86 S8        30.53S WCI  20
TWIN BRIDGES     N/A     25  18  74 S7        30.40F WCI  17
$$

MTZ009-010-012-014-046-048-049-054-091300-
EAST SLOPES AND CENTRAL MONTANA

CITY           SKY/WX    TMP DP  RH WIND       PRES   REMARKS
CUT BANK       CLEAR     41  29  62 W18       30.29R
GREAT FALLS    CLOUDY    41  29  62 SW16      30.31S
MALMSTROM AFB  CLOUDY    39  29  67 SW16      30.31F WCI  31
HELENA         CLOUDY    31  27  85 NW3       30.43R
CHOTEAU          N/A     45  23  42 SW10      30.32S
CONRAD           N/A     45  27  49 W5        30.27S
$$

MTZ011-013-016-021-045-047-050-051-091300-
NORTH CENTRAL MONTANA

CITY           SKY/WX    TMP DP  RH WIND       PRES   REMARKS
HAVRE          CLOUDY    32  27  81 SW7       30.26S WCI  26
LEWISTOWN      CLEAR     32  23  69 W7        30.31S WCI  26
N BAR RANCH      N/A     45  25  45 NW13      30.28S
CHINOOK          N/A     25  25 100 CALM      30.26S
$$

MTZ017>020-022>027-061-062-091300-
NORTHEAST MONTANA

CITY           SKY/WX    TMP DP  RH WIND       PRES   REMARKS
GLASGOW        CLOUDY    29  24  82 W6        30.24S WCI  23
JORDAN           N/A     29  27  92 W8        30.25R WCI  21
SIDNEY         CLOUDY    34  21  60 NW12      30.20S WCI  25
WOLF POINT     CLOUDY    31  25  78 W7        30.24R WCI  24
PLENTYWOOD       N/A     30  25  80 NW9G17    30.18S WCI  22
POPLAR           N/A     28  25  86 W9        30.24S WCI  20
SCOBEY           N/A     31  19  61 CALM      30.17R
$$

MTZ028>42-056>058-091300-
SOUTHCENTRAL AND SOUTHEAST MONTANA

CITY           SKY/WX    TMP DP  RH WIND       PRES   REMARKS
BAKER          CLOUDY    30  21  69 W12       30.20F WCI  20
BILLINGS       CLEAR     33  23  66 SW8       30.31R WCI  26
LIVINGSTON     CLOUDY    45  24  43 W20       30.40R
MILES CITY     PTCLDY    28  24  85 SE3       30.25R
EKALAKA          N/A     31  23  72 W5        30.16F
FORSYTH          N/A     34  27  75 W7        30.26S WCI  28
LAUREL           N/A     31  14  49 SW8       30.27S WCI  24
ROUNDUP          N/A     37  27  68 SW8       30.17S WCI  31
$$

REGIONAL REPORTS...DAKOTAS

CITY           SKY/WX    TMP DP  RH WIND       PRES   REMARKS
WILLISTON      CLOUDY    27  21  78 NE5       30.20R
MINOT          CLOUDY    26   9  48 SW9       30.21S WCI  17
DICKINSON      CLOUDY    23  17  78 S7        30.16F WCI  15
BEACH          CLOUDY    32  19  59 NW9       30.23R WCI  24
CROSBY         CLOUDY    25  25 100 SW8       30.21S WCI  16
TIOGA          CLOUDY    21  21 100 S5        30.22F
WATFORD CITY   MOCLDY    25  21  86 CALM      30.19S
BISMARCK       CLOUDY    25  12  58 W5        30.27R
GRAND FORKS    CLOUDY    11   4  73 N13       30.28R WCI  -4
FARGO          CLOUDY     8   2  76 NW10      30.25S WCI  -6
BUFFALO SD       N/A     25  15  66 SW6       30.12F WCI  18
RAPID CITY     CLOUDY    22  14  71 W3        30.22S
$$

REGIONAL REPORTS...WYOMING/IDAHO/WASHINGTON

CITY           SKY/WX    TMP DP  RH WIND       PRES   REMARKS
GILLETTE       CLEAR     33  27  78 W13       30.26S WCI  24
SHERIDAN       CLEAR     41  27  56 W7        30.27F
BUFFALO WY     CLEAR     41  26  55 N7        30.29S
CODY           CLOUDY    30  18  59 NW3       30.34S
YELLOWSTONE LA   N/A     16  13  88 CALM      30.56F
IDAHO FALLS    FOG       12   9  87 NW7       30.62S VSB 1/4 WCI   1
SALMON         CLOUDY     9   5  85 SE3       30.66S
BOISE          CLOUDY    29  25  85 S8        30.60F WCI  21
SPOKANE        PTCLDY    32  28  85 NE9       30.47F WCI  24
$$

REGIONAL REPORTS...ALBERTA

CITY           SKY/WX    TMP DP  RH WIND       PRES   REMARKS
EDMONTON       PTCLDY    37  27  65 SW7       30.13S
CALGARY        PTCLDY    50  19  29 NW3       30.22F
LETHBRIDGE     CLEAR     41  28  60 W14       30.25S
MEDICINE HAT   CLEAR     28  28 100 SW9       30.22S WCI  20
WATERTON GATE    N/A     43  28  56 SW30G47     N/A
CARDSTON         N/A     48  23  37 W15G24      N/A
MILK RIVER       N/A     36  27  69 W14         N/A  WCI  27
ONEFOUR          N/A     34  28  80 NW17        N/A  WCI  23
$$

REGIONAL REPORTS...SASKATCHEWAN

CITY           SKY/WX    TMP DP  RH WIND       PRES   REMARKS
SWIFT CURRENT  CLOUDY    32  27  80 W7        30.20S WCI  26
REGINA         MOCLDY    19  18  93 NW6       30.20S WCI  11
SASKATOON      CLOUDY    21  21 100 CALM      30.23S
CYPRESS HILLS    N/A     36  21  55 W2          N/A
VAL MARIE        N/A     28  27  93 N1          N/A
ROCKGLEN         N/A     34  27  75 NW8         N/A  WCI  27
ASSINIBOIA       N/A     34  28  80 SW3         N/A
$$



USA.gov is the U.S. government's official web portal to all federal, state and local government web resources and services.